SCP
0 0 0 0 0 0 0 0 0 0 0 0 0 0 0 0 0 0 0 0 0 0 0 0 0 0 0 0 0 0 0 0 0 0 0 0 0 0 0 0 0 0 0 0
0 0 0 0 0 0 0 0 0 0 0 0 0 0 0 0 0 0 0 0 0 0 0 0 0 0 0 0 0 0 0 0 0 0 0 0 0 0 0 0 0 0 0 0
0 0 0 0 0 0 0 0 0 0 0 0 0 0 0 0 0 0 0 0 0 0 0 0 0 0 0 0 0 0 0 0 0 0 0 0 0 0 0 0 0 0 0 0
0 0 0 0 0 0 0 0 0 0 0 0 0 0 0 0 0 0 0 0 0 0 0 0 0 0 0 0 0 0 0 0 0 0 0 0 0 0 0 0 0 0 0 0
0 0 0 0 0 0 0 0 0 0 0 0 0 0 0 0 0 0 0 0 0 0 0 0 0 0 0 0 0 0 0 0 0 0 0 0 0 0 0 0 0 0 0 0
0 0 0 0 0 0 0 0 0 0 0 0 0 0 0 0 0 0 0 0 0 0 0 0 0 0 0 0 0 0 0 0 0 0 0 0 0 0 0 0 0 0 0 0
0 0 0 0 0 0 0 0 0 0 0 0 0 0 0 0 0 0 0 0 0 0 0 0 0 0 0 0 0 0 0 0 0 0 0 0 0 0 0 0 0 0 0 0
0 0 0 0 0 0 0 0 0 0 0 0 0 0 0 0 0 0 0 0 0 0 0 0 0 0 0 0 0 0 0 0 0 0 0 0 0 0 0 0 0 0 0 0
0 0 0 0 0 0 0 0 0 0 0 0 0 0 0 0 0 0 0 0 0 0 0 0 0 0 0 0 0 0 0 0 0 0 0 0 0 0 0 0 0 0 0 0
0 0 0 0 0 0 0 0 0 0 0 0 0 0 0 0 0 0 0 0 0 0 0 0 0 0 0 0 0 0 0 0 0 0 0 0 0 0 0 0 0 0 0 0
0 0 0 0 0 0 0 0 0 0 0 0 0 0 0 0 0 0 0 0 0 0 0 0 0 0 0 0 0 0 0 0 0 0 0 0 0 0 0 0 0 0 0 0
0 0 0 0 0 0 0 0 0 0 0 0 0 0 0 0 0 0 0 0 0 0 0 0 0 0 0 0 0 0 0 0 0 0 0 0 0 0 0 0 0 0 0 0
0 0 0 0 0 0 0 0 0 0 0 0 0 0 0 0 0 0 0 0 0 0 0 0 0 0 0 0 0 0 0 0 0 0 0 0 0 0 0 0 0 0 0 0
0 0 0 0 0 0 0 0 0 0 0 0 0 0 0 0 0 0 0 0 0 0 0 0 0 0 0 0 0 0 0 0 0 0 0 0 0 0 0 0 0 0 0 0
0 0 0 0 0 0 0 0 0 0 0 0 0 0 0 0 0 0 0 0 0 0 0 0 0 0 0 0 0 0 0 0 0 0 0 0 0 0 0 0 0 0 0 0
0 0 0 0 0 0 0 0 0 0 0 0 0 0 0 0 0 0 0 0 0 0 0 0 0 0 0 0 0 0 0 0 0 0 0 0 0 0 0 0 0 0 0 0
0 0 0 0 0 0 0 0 0 0 0 0 0 0 0 0 0 0 0 0 0 0 0 0 0 0 0 0 0 0 0 0 0 0 0 0 0 0 0 0 0 0 0 0
0 0 0 0 0 0 0 0 0 0 0 0 0 0 0 0 0 0 0 0 0 0 0 0 0 0 0 0 0 0 0 0 0 0 0 0 0 0 0 0 0 0 0 0
0 0 0 0 0 0 0 0 0 0 0 0 0 0 0 0 0 0 0 0 0 0 0 0 0 0 0 0 0 0 0 0 0 0 0 0 0 0 0 0 0 0 0 0
0 0 0 0 0 0 0 0 0 0 0 0 0 0 0 0 0 0 0 0 0 0 0 0 0 0 0 0 0 0 0 0 0 0 0 0 0 0 0 0 0 0 0 0
0 0 0 0 0 0 0 0 0 0 0 0 0 0 0 0 0 0 0 0 0 0 0 0 0 0 0 0 0 0 0 0 0 0 0 0 0 0 0 0 0 0 0 0
0 0 0 0 0 0 0 0 0 0 0 0 0 0 0 0 0 0 0 0 0 0 0 0 0 0 0 0 0 0 0 0 0 0 0 0 0 0 0 0 0 0 0 0
0 0 0 0 0 0 0 0 0 0 0 0 0 0 0 0 0 0 0 0 0 0 0 0 0 0 0 0 0 0 0 0 0 0 0 0 0 0 0 0 0 0 0 0
0 0 0 0 0 0 0 0 0 0 0 0 0 0 0 0 0 0 0 0 0 0 0 0 0 0 0 0 0 0 0 0 0 0 0 0 0 0 0 0 0 0 0 0
0 0 0 0 0 0 0 0 0 0 0 0 0 0 0 0 0 0 0 0 0 0 0 0 0 0 0 0 0 0 0 0 0 0 0 0 0 0 0 0 0 0 0 0
0 0 0 0 0 0 0 0 0 0 0 0 0 0 0 0 0 0 0 0 0 0 0 0 0 0 0 0 0 0 0 0 0 0 0 0 0 0 0 0 0 0 0 0
0 0 0 0 0 0 0 0 0 0 0 0 0 0 0 0 0 0 0 0 0 0 0 0 0 0 0 0 0 0 0 0 0 0 0 0 0 0 0 0 0 0 0 0
Wind_Speed
13 12 11 14 17 19 21 22 20 21 25 24 19 16 14 12 9 9 9 9 8 7 5 4 3 3 2 1 0 0 0 0 0 0 0 0 0 0 0 0 0 1 1 1
11 13 13 15 19 21 23 23 25 25 27 24 19 15 14 13 12 12 13 12 10 8 7 6 5 4 3 2 1 1 1 1 0 1 1 1 1 1 1 1 1 1 1 1
11 9 9 16 21 24 23 22 21 25 28 22 20 17 16 15 14 15 14 13 11 10 8 7 6 5 5 3 2 2 2 1 1 1 1 2 2 1 1 1 1 1 1 1
6 6 16 13 11 19 22 24 23 22 22 21 20 18 14 13 14 14 13 12 10 9 8 6 5 5 4 3 3 2 2 1 1 1 1 2 2 2 2 1 1 1 1 2
7 12 15 13 9 11 16 20 20 22 23 21 17 13 13 12 12 13 12 10 8 8 7 5 5 5 4 4 3 3 2 1 1 1 2 2 2 1 1 1 1 1 2 3
9 12 14 12 6 7 10 18 15 17 20 18 13 14 14 9 8 7 7 5 5 5 5 5 5 5 5 5 4 3 2 2 1 1 1 1 1 1 1 1 1 1 2 2
14 14 13 8 3 7 10 11 6 9 12 12 14 13 8 4 3 3 3 3 3 4 4 4 4 5 5 5 4 3 2 1 1 1 1 1 1 1 1 1 1 1 2 2
10 13 14 4 7 10 8 3 3 5 7 8 8 5 4 3 2 3 3 3 3 4 3 3 4 5 5 4 2 2 3 2 1 1 1 1 1 1 1 1 1 1 2 2
9 9 3 4 7 5 3 5 5 5 5 5 4 5 4 3 3 3 3 3 3 4 4 3 2 3 4 2 2 3 3 2 2 1 1 1 1 1 1 1 0 1 1 2
9 11 8 7 6 6 5 6 5 4 4 4 5 5 4 3 3 3 3 3 3 4 4 3 2 3 2 2 3 3 3 2 2 2 1 1 1 0 0 0 0 1 1 2
11 10 8 9 9 7 6 5 4 3 4 5 5 5 5 4 4 4 3 3 3 3 3 3 3 3 2 2 3 3 3 2 1 1 1 1 1 1 1 1 1 1 2 2
12 8 7 8 5 6 7 7 5 4 4 4 5 5 4 4 3 4 4 4 3 3 3 3 3 2 2 1 2 2 2 2 1 1 1 0 0 1 2 2 3 3 3 3
11 6 7 7 5 5 6 5 4 4 4 4 3 4 4 4 3 3 4 4 3 3 3 2 2 2 1 1 1 2 2 1 1 1 0 0 0 0 1 1 2 3 4 5
7 5 7 7 6 4 4 3 1 1 1 2 3 3 3 3 3 4 3 3 3 3 2 2 2 1 0 1 1 1 1 1 1 1 1 1 1 1 1 1 2 2 3 5
7 7 7 3 2 2 2 2 3 2 2 2 3 3 4 4 4 3 2 3 3 3 2 2 1 0 1 1 1 1 1 1 1 1 1 1 1 1 1 2 2 3 3 4
4 3 3 3 4 3 3 4 4 4 3 3 3 3 3 3 3 2 2 2 3 3 2 2 1 1 0 1 2 1 1 1 1 1 1 1 1 1 2 2 2 3 3 4
4 5 5 5 6 5 5 5 5 4 3 4 3 3 3 4 3 2 1 1 1 1 1 1 2 1 0 1 1 1 1 1 1 1 2 2 2 2 2 2 3 3 4 5
5 5 5 5 5 5 4 3 3 3 3 3 4 4 4 4 4 3 2 1 1 0 1 1 1 1 1 1 1 1 1 2 2 2 2 2 2 2 2 3 4 4 4 5
3 3 3 3 3 3 3 3 3 3 3 4 5 5 4 4 3 3 2 2 2 2 2 1 2 1 1 1 2 1 2 2 2 2 2 2 3 3 3 3 4 4 5 5
2 1 1 1 1 2 3 2 3 3 3 4 4 4 3 3 3 3 3 2 2 1 1 1 1 1 2 2 2 2 2 2 2 2 3 3 3 4 4 4 5 5 5 5
3 2 2 2 2 1 2 3 4 4 3 4 5 5 4 3 3 3 3 2 1 1 1 2 2 2 1 1 2 2 2 3 3 3 3 4 4 4 4 5 5 5 5 5
3 3 3 3 2 2 1 2 3 3 4 4 4 4 4 3 3 2 3 2 2 2 1 2 2 2 2 2 2 2 3 3 3 3 4 4 4 5 5 5 5 5 5 6
3 3 3 3 3 2 1 2 2 3 4 4 4 4 4 3 3 3 2 2 1 2 2 2 3 3 3 2 2 3 3 4 4 4 4 5 5 5 5 6 6 6 6 6
3 3 3 2 3 3 2 2 2 2 2 2 2 3 3 2 2 2 1 2 2 3 2 3 4 4 3 2 3 3 4 4 4 5 5 5 5 5 6 6 6 6 6 7
3 3 3 4 3 3 3 2 2 2 2 1 1 2 2 2 2 2 1 2 3 3 2 3 4 4 3 3 4 4 4 5 5 5 5 6 6 6 6 6 6 7 6 7
3 3 3 3 2 2 2 2 2 2 2 1 1 1 1 1 2 2 2 2 3 3 3 3 3 3 3 4 4 5 5 5 6 6 6 6 7 7 7 7 8 7 7 7
2 2 2 2 2 2 2 2 2 2 2 2 2 2 2 1 2 2 2 2 2 3 3 3 3 3 4 4 4 5 5 5 5 6 6 6 6 7 7 8 7 7 7 7
Wind_Direction
253 257 239 233 233 232 231 235 241 248 252 255 254 254 253 251 249 245 248 248 243 241 242 243 242 240 234 237 268 233 193 164 258 285 244 148 99 73 71 55 7 318 316 320
248 250 250 250 242 238 237 239 243 251 257 258 260 256 252 246 242 243 245 246 245 238 232 231 230 233 231 224 207 186 171 161 100 67 60 56 60 61 57 51 38 25 9 0
251 248 251 245 236 233 235 236 239 245 251 256 257 252 249 247 243 243 245 246 242 237 232 226 223 220 225 221 192 177 174 149 117 99 82 60 50 55 55 44 36 24 2 350
245 223 238 245 242 233 239 242 240 244 253 256 257 259 253 244 244 247 246 243 238 235 233 221 209 208 208 192 182 180 185 173 151 136 107 77 67 55 40 27 18 6 347 336
227 243 257 260 238 222 231 246 242 244 250 254 257 261 257 246 239 240 240 237 234 228 225 214 203 194 182 182 181 177 187 195 188 161 138 125 109 78 40 20 6 2 349 340
225 237 244 254 237 221 227 250 248 242 247 250 245 252 256 246 232 233 234 231 224 215 205 202 199 179 177 185 184 189 196 197 192 177 165 160 134 101 61 38 7 356 347 341
229 241 252 256 208 170 214 249 262 245 246 246 242 249 262 252 225 213 214 215 201 187 191 198 185 176 183 188 194 189 162 148 148 158 145 120 87 64 62 51 29 357 342 340
221 236 247 201 183 206 238 264 259 252 246 245 252 263 260 247 205 187 181 173 171 174 176 172 172 176 179 186 175 142 133 130 122 106 99 98 95 78 57 50 35 356 349 344
221 238 270 194 220 245 253 244 247 249 247 232 236 242 246 238 204 184 171 161 159 154 149 141 146 165 173 161 131 132 128 129 120 94 76 84 110 101 76 71 43 338 331 320
251 252 251 247 254 257 252 252 261 261 245 227 229 228 230 211 188 165 148 146 144 143 142 137 116 109 118 118 128 130 133 134 126 117 91 53 43 70 174 225 291 309 317 314
253 264 274 254 246 251 255 256 255 252 240 228 217 215 208 197 184 167 151 143 144 151 146 134 110 96 85 97 124 131 131 126 119 106 92 64 25 341 299 309 300 287 291 290
249 242 244 261 253 239 242 244 236 230 234 220 205 202 189 183 175 162 150 142 142 140 135 127 113 94 60 54 106 132 135 130 130 132 137 151 104 7 1 321 332 322 315 305
252 254 253 265 261 247 243 245 230 216 211 199 186 179 173 165 158 147 143 145 153 151 144 139 126 106 54 41 96 132 149 150 150 157 180 199 206 209 293 338 331 323 332 329
249 249 254 249 248 247 234 226 197 156 147 155 152 147 145 145 143 147 156 157 147 134 134 136 126 116 11 79 112 126 140 141 170 182 194 229 251 253 260 273 293 301 315 322
243 242 249 252 229 210 182 166 158 168 151 134 133 144 151 153 157 157 144 134 131 132 142 146 144 233 353 109 126 136 152 168 184 196 206 223 247 257 260 267 275 288 300 307
248 248 238 229 225 214 193 192 196 200 186 173 164 163 157 143 136 131 127 137 151 162 167 170 198 243 266 141 142 145 162 175 203 215 220 228 240 252 262 269 276 282 289 300
218 231 227 231 228 223 217 216 214 206 189 183 177 156 138 130 130 135 137 132 148 174 198 208 231 251 195 186 186 182 183 192 198 220 228 227 232 242 256 266 272 278 284 293
234 240 231 226 221 217 217 208 200 194 193 182 159 154 160 166 174 177 174 148 125 122 263 245 230 197 168 193 206 207 199 207 218 226 236 239 245 252 258 262 269 277 285 293
233 234 234 230 218 202 200 198 194 188 176 165 167 174 175 177 176 171 165 165 176 211 240 226 207 160 203 221 210 215 212 213 226 239 246 248 252 252 255 261 268 273 278 282
226 219 208 204 184 185 189 186 175 177 177 165 163 165 168 172 165 165 175 205 230 241 203 211 211 219 227 232 229 226 227 230 237 246 250 253 256 259 259 260 264 269 272 272
215 207 199 195 194 190 189 179 173 179 175 169 173 179 176 173 168 171 185 214 225 172 195 210 220 229 231 224 219 233 235 240 243 246 250 253 257 260 262 264 265 266 268 270
209 203 205 197 188 195 183 170 169 170 169 169 168 165 166 179 182 195 218 229 219 200 219 233 236 232 232 234 239 237 240 245 250 253 254 256 258 261 264 267 267 268 269 270
201 197 195 191 187 178 149 157 171 174 179 181 180 184 190 194 196 200 223 204 198 216 236 242 238 237 237 241 244 245 247 250 253 255 257 258 259 261 264 267 268 269 271 272
186 183 181 164 148 154 177 184 172 172 173 187 192 189 188 195 219 228 236 208 218 238 254 250 250 252 250 249 248 250 253 255 257 258 259 260 260 261 262 265 267 269 269 272
178 169 162 163 176 193 194 172 155 162 168 188 210 211 214 220 219 225 227 232 238 250 261 263 263 265 261 254 253 254 256 256 258 260 260 259 260 261 262 263 264 266 268 268
181 186 189 195 200 196 187 181 187 189 183 198 231 232 227 223 220 233 234 236 242 251 257 261 261 260 257 256 256 257 259 261 260 258 257 259 260 261 261 262 265 265 267 268
173 177 174 188 197 197 193 193 197 204 202 205 229 237 235 236 234 237 242 246 249 253 256 258 256 254 254 255 257 259 260 261 262 262 262 260 259 260 261 263 264 265 266 266